CW8014 Weather Reports


time (UTC)temp
C
wind
direction
speed
KPH
gust
KPH
rain 1hr
cm
rain 24hr
cm
rain mn
cm
humidity
%
barometer
mb
20260506023405 10 22 4.8 11.3 0.00 0.00 0.00 86 1008.1
20260506022405 10 17 4.8 12.9 0.00 0.00 0.00 87 1008.1
20260506020408 10 29 4.8 9.7 0.00 0.00 0.00 88 1008.2
20260506015405 10 16 4.8 11.3 0.00 0.00 0.00 88 1008.3
20260506012405 10 19 4.8 9.7 0.00 0.00 0.00 89 1008.3
20260506011405 10 9 4.8 12.9 0.00 0.00 0.00 89 1008.4
20260506010405 10 29 4.8 12.9 0.00 0.00 0.00 89 1008.4
20260506004406 10 346 6.4 11.3 0.00 0.00 0.00 88 1008.6
20260506003406 10 355 6.4 12.9 0.00 0.00 0.00 87 1008.6
20260506002406 10 360 4.8 8.0 0.00 0.00 0.00 87 1008.7
20260506000409 10 355 6.4 12.9 0.00 0.00 0.00 86 1008.8
20260505235407 10 360 4.8 16.1 0.00 0.00 0.00 86 1009.0
20260505234406 10 17 6.4 14.5 0.00 0.00 0.00 85 1009.1
20260505233409 10 5 4.8 9.7 0.00 0.00 0.00 85 1009.1
20260505232406 10 5 9.7 16.1 0.00 0.00 0.00 85 1009.0
20260505231406 10 17 8.0 19.3 0.00 0.00 0.00 85 1009.1
20260505230407 10 344 4.8 12.9 0.00 0.00 0.00 85 1009.1
20260505224407 10 360 8.0 16.1 0.00 0.00 0.00 84 1009.2
20260505222406 10 5 6.4 17.7 0.00 0.00 0.00 84 1009.3
20260505220407 10 360 8.0 16.1 0.00 0.00 0.00 83 1009.4
20260505215407 10 346 6.4 17.7 0.00 0.00 0.00 83 1009.5
20260505214407 10 11 6.4 16.1 0.00 0.00 0.00 83 1009.7
20260505213407 10 5 4.8 12.9 0.00 0.00 0.00 83 1009.7
20260505212410 10 119 4.8 9.7 0.00 0.00 0.00 83 1009.7
20260505211407 10 5 8.0 17.7 0.00 0.00 0.00 83 1009.7
20260505210407 10 17 4.8 11.3 0.00 0.00 0.00 84 1009.8
20260505205407 10 360 6.4 16.1 0.00 0.00 0.00 83 1009.9
20260505204407 10 25 8.0 16.1 0.00 0.00 0.00 83 1009.9
20260505203407 10 9 8.0 17.7 0.00 0.00 0.00 83 1010.0
20260505202407 10 344 8.0 19.3 0.00 0.00 0.00 84 1010.0
20260505201410 10 346 8.0 14.5 0.00 0.00 0.00 84 1009.9
20260505195407 10 9 6.4 16.1 0.00 0.00 0.00 84 1009.9
20260505193408 10 355 6.4 17.7 0.00 0.00 0.00 84 1009.8
20260505192407 10 355 6.4 14.5 0.00 0.00 0.00 85 1009.8
20260505191408 10 11 8.0 16.1 0.00 0.00 0.00 84 1009.7
20260505190408 10 360 6.4 14.5 0.00 0.00 0.00 85 1009.6
20260505185408 10 342 6.4 12.9 0.00 0.00 0.00 84 1009.6
20260505183408 10 345 11.3 19.3 0.00 0.00 0.00 84 1009.5
20260505181408 10 5 9.7 19.3 0.00 0.00 0.00 84 1009.5
20260505175408 11 37 9.7 17.7 0.00 0.00 0.00 83 1009.7
20260505174411 11 328 9.7 20.9 0.00 0.00 0.00 83 1009.6
20260505173408 11 360 11.3 19.3 0.00 0.00 0.00 82 1009.7
20260505172408 11 9 11.3 20.9 0.00 0.00 0.00 82 1009.7
20260505171408 11 13 11.3 19.3 0.00 0.00 0.00 82 1009.8
20260505165409 12 346 12.9 20.9 0.00 0.00 0.00 80 1009.7
20260505164409 12 11 6.4 14.5 0.00 0.00 0.00 81 1009.7
20260505163412 12 97 4.8 14.5 0.00 0.00 0.00 81 1009.7
20260505162409 12 5 9.7 17.7 0.00 0.00 0.00 78 1009.7
20260505161409 12 333 9.7 17.7 0.00 0.00 0.00 78 1009.6
20260505160409 12 51 6.4 14.5 0.00 0.00 0.00 77 1009.7
20260505151409 13 355 8.0 16.1 0.00 0.00 0.00 74 1010.0
20260505150409 13 355 8.0 14.5 0.00 0.00 0.00 77 1010.0
20260505140404 13 5 8.0 17.7 0.00 0.00 0.00 79 1010.3
20260505124405 12 360 3.2 8.0 0.00 0.00 0.00 83 1010.9
20260505123406 11 350 6.4 14.5 0.00 0.00 0.00 81 1011.0
20260505122405 11 15 4.8 12.9 0.00 0.00 0.00 80 1011.0
20260505121405 11 24 3.2 6.4 0.00 0.00 0.00 82 1010.9
20260505120406 11 5 4.8 9.7 0.00 0.00 0.00 82 1011.0
20260505115405 12 325 4.8 11.3 0.00 0.00 0.00 83 1011.0
20260505114405 11 57 4.8 12.9 0.00 0.00 0.00 84 1011.1
20260505112405 11 355 6.4 12.9 0.00 0.00 0.00 83 1011.1
20260505111406 11 350 6.4 12.9 0.00 0.00 0.00 82 1011.2
20260505110408 11 69 3.2 6.4 0.00 0.00 0.00 83 1011.3
20260505101406 10 19 4.8 8.0 0.00 0.00 0.00 83 1011.5
20260505100406 10 26 8.0 17.7 0.00 0.00 0.00 84 1011.6
20260505095406 10 325 8.0 14.5 0.00 0.00 0.00 84 1011.6
20260505094406 10 42 9.7 19.3 0.00 0.00 0.00 84 1011.6
20260505093409 10 35 6.4 14.5 0.00 0.00 0.00 85 1011.6
20260505091407 10 62 4.8 12.9 0.00 0.00 0.00 85 1011.8
20260505090406 10 14 6.4 14.5 0.00 0.00 0.00 86 1011.9
20260505084407 10 76 4.8 12.9 0.00 0.00 0.00 85 1012.1
20260505083409 10 24 4.8 8.0 0.00 0.00 0.00 86 1012.1
20260505082406 10 30 4.8 14.5 0.00 0.00 0.00 85 1012.1
20260505074407 8 355 8.0 14.5 0.00 0.00 0.00 87 1012.2
20260505072407 8 21 8.0 16.1 0.00 0.00 0.00 88 1012.1
20260505071407 8 360 8.0 19.3 0.00 0.00 0.00 88 1012.1
20260505070407 8 5 9.7 19.3 0.00 0.00 0.00 88 1012.1
20260505065407 8 15 6.4 12.9 0.00 0.00 0.00 88 1012.2
20260505064407 8 355 6.4 11.3 0.00 0.00 0.00 89 1012.2
20260505063407 8 24 6.4 14.5 0.00 0.00 0.00 89 1012.3
20260505062407 8 344 4.8 16.1 0.00 0.00 0.00 89 1012.2
20260505060407 8 53 6.4 14.5 0.00 0.00 0.00 89 1012.3
20260505055407 8 14 4.8 9.7 0.00 0.00 0.00 89 1012.2
20260505054407 8 33 4.8 12.9 0.00 0.00 0.00 89 1012.2
20260505052407 8 55 8.0 17.7 0.00 0.00 0.00 89 1012.2
20260505051407 8 14 6.4 16.1 0.00 0.00 0.00 89 1012.2
20260505041407 8 42 8.0 16.1 0.00 0.00 0.00 89 1012.1
20260505040407 8 32 4.8 19.3 0.00 0.00 0.00 90 1012.1
20260505035407 8 12 4.8 11.3 0.00 0.00 0.00 89 1012.0
20260505034407 8 66 3.2 6.4 0.00 0.00 0.00 89 1012.1
20260505030407 8 59 4.8 12.9 0.00 0.00 0.00 89 1012.3
20260505025407 8 56 4.8 12.9 0.00 0.00 0.00 89 1012.3
20260505024412 8 36 8.0 16.1 0.00 0.00 0.00 89 1012.4